• In Belarus
  • List of Countries
  • For 7 days
  • Water Temperature
  • Satellite Maps
  • Weather Map
  • Weather Widgets
  • user-avatar
    Login

    Hourly Weather Horog

    Today, 20 January, Saturday

    Time Temperature Precipitation Wind Pressure Humidity
    00:00 -19°C° 0 mm 3 mps 484 mmHg 36%
    01:00 -19°C° 0 mm 3 mps 484 mmHg 33%
    02:00 -19°C° 0 mm 3 mps 484 mmHg 31%
    03:00 -21°C° 0 mm 3 mps 483 mmHg 29%
    04:00 -21°C° 0 mm 3 mps 483 mmHg 26%
    05:00 -21°C° 0 mm 3 mps 483 mmHg 25%
    06:00 -21°C° 0 mm 3 mps 483 mmHg 23%
    07:00 -21°C° 0 mm 3 mps 483 mmHg 22%
    08:00 -21°C° 0 mm 3 mps 483 mmHg 20%
    09:00 -17°C° 0 mm 3 mps 484 mmHg 28%
    10:00 -14°C° 0 mm 3 mps 485 mmHg 37%
    11:00 -12°C° 0 mm 3 mps 486 mmHg 45%
    12:00 -8°C° 0 mm 2 mps 486 mmHg 46%
    13:00 -7°C° 0 mm 2 mps 486 mmHg 48%
    14:00 -6°C° 0 mm 2 mps 486 mmHg 49%
    15:00 -7°C° 0 mm 2 mps 485 mmHg 46%
    16:00 -9°C° 0 mm 2 mps 484 mmHg 43%
    17:00 -12°C° 0 mm 2 mps 483 mmHg 40%
    18:00 -14°C° 0 mm 3 mps 482 mmHg 38%
    19:00 -15°C° 0 mm 3 mps 482 mmHg 35%
    20:00 -16°C° 0 mm 3 mps 482 mmHg 33%
    21:00 -17°C° 0 mm 3 mps 482 mmHg 33%
    22:00 -17°C° 0 mm 3 mps 481 mmHg 32%
    23:00 -18°C° 0 mm 3 mps 481 mmHg 32%

    Tomorrow, 21 January, Sunday

    Time Temperature Precipitation Wind Pressure Humidity
    00:00 -18°C° 0 mm 3 mps 481 mmHg 31%
    01:00 -19°C° 0 mm 4 mps 481 mmHg 30%
    02:00 -19°C° 0 mm 4 mps 480 mmHg 29%
    03:00 -20°C° 0 mm 4 mps 480 mmHg 28%
    04:00 -20°C° 0 mm 4 mps 480 mmHg 27%
    05:00 -20°C° 0 mm 4 mps 479 mmHg 25%
    06:00 -20°C° 0 mm 4 mps 480 mmHg 25%
    07:00 -20°C° 0 mm 4 mps 480 mmHg 24%
    08:00 -20°C° 0 mm 4 mps 480 mmHg 24%
    09:00 -16°C° 0 mm 3 mps 481 mmHg 32%
    10:00 -14°C° 0 mm 3 mps 482 mmHg 40%
    11:00 -10°C° 0 mm 3 mps 483 mmHg 48%
    12:00 -8°C° 0 mm 2 mps 483 mmHg 49%
    13:00 -7°C° 0 mm 2 mps 483 mmHg 50%
    14:00 -6°C° 0 mm 2 mps 483 mmHg 52%
    15:00 -7°C° 0 mm 2 mps 482 mmHg 50%
    16:00 -9°C° 0 mm 2 mps 482 mmHg 48%
    17:00 -12°C° 0 mm 2 mps 481 mmHg 46%
    18:00 -13°C° 0 mm 2 mps 481 mmHg 43%
    19:00 -16°C° 0 mm 3 mps 481 mmHg 40%
    20:00 -17°C° 0 mm 3 mps 481 mmHg 37%
    21:00 -18°C° 0 mm 3 mps 481 mmHg 36%
    22:00 -18°C° 0 mm 3 mps 480 mmHg 36%
    23:00 -19°C° 0 mm 3 mps 480 mmHg 36%

    Day after tomorrow, 22 January, Monday

    Time Temperature Precipitation Wind Pressure Humidity
    00:00 -19°C° 0 mm 3 mps 480 mmHg 36%
    01:00 -19°C° 0 mm 3 mps 480 mmHg 37%
    02:00 -21°C° 0 mm 3 mps 480 mmHg 37%
    03:00 -21°C° 0 mm 3 mps 479 mmHg 36%
    04:00 -21°C° 0 mm 3 mps 479 mmHg 36%
    05:00 -22°C° 0 mm 3 mps 479 mmHg 35%
    06:00 -22°C° 0 mm 3 mps 479 mmHg 34%
    07:00 -22°C° 0 mm 3 mps 479 mmHg 33%
    08:00 -22°C° 0 mm 3 mps 479 mmHg 32%
    09:00 -18°C° 0 mm 3 mps 480 mmHg 38%
    10:00 -16°C° 0 mm 3 mps 481 mmHg 43%
    11:00 -12°C° 0 mm 2 mps 482 mmHg 49%
    12:00 -10°C° 0 mm 2 mps 482 mmHg 48%
    13:00 -9°C° 0 mm 2 mps 482 mmHg 48%
    14:00 -7°C° 0 mm 1 mps 482 mmHg 48%
    15:00 -8°C° 0 mm 1 mps 481 mmHg 48%
    16:00 -10°C° 0 mm 1 mps 480 mmHg 49%
    17:00 -12°C° 0 mm 1 mps 479 mmHg 49%
    18:00 -15°C° 0 mm 2 mps 479 mmHg 46%
    19:00 -16°C° 0 mm 2 mps 480 mmHg 43%
    20:00 -19°C° 0 mm 3 mps 480 mmHg 40%
    21:00 -19°C° 0 mm 3 mps 480 mmHg 39%
    22:00 -21°C° 0 mm 3 mps 479 mmHg 38%
    23:00 -21°C° 0 mm 3 mps 479 mmHg 37%

    23 January, Tuesday

    Time Temperature Precipitation Wind Pressure Humidity
    00:00 -21°C° 0 mm 3 mps 479 mmHg 36%
    01:00 -22°C° 0 mm 3 mps 479 mmHg 36%
    02:00 -22°C° 0 mm 3 mps 479 mmHg 36%
    03:00 -22°C° 0 mm 3 mps 478 mmHg 36%
    04:00 -22°C° 0 mm 3 mps 478 mmHg 36%
    05:00 -22°C° 0 mm 3 mps 478 mmHg 37%
    06:00 -22°C° 0 mm 3 mps 478 mmHg 37%
    07:00 -22°C° 0 mm 3 mps 479 mmHg 37%
    08:00 -21°C° 0 mm 3 mps 479 mmHg 38%
    09:00 -17°C° 0 mm 2 mps 480 mmHg 41%
    10:00 -15°C° 0 mm 2 mps 481 mmHg 44%
    11:00 -13°C° 0 mm 2 mps 481 mmHg 48%
    12:00 -12°C° 0 mm 2 mps 481 mmHg 46%
    13:00 -9°C° 0 mm 1 mps 481 mmHg 45%
    14:00 -8°C° 0 mm 1 mps 481 mmHg 44%
    15:00 -9°C° 0 mm 1 mps 480 mmHg 46%
    16:00 -11°C° 0 mm 1 mps 480 mmHg 49%
    17:00 -12°C° 0 mm 1 mps 479 mmHg 51%
    18:00 -13°C° 0 mm 1 mps 479 mmHg 49%
    19:00 -16°C° 0 mm 2 mps 479 mmHg 48%
    20:00 -18°C° 0 mm 2 mps 479 mmHg 46%
    21:00 -18°C° 0 mm 2 mps 479 mmHg 46%
    22:00 -19°C° 0 mm 2 mps 479 mmHg 45%
    23:00 -19°C° 0 mm 2 mps 479 mmHg 44%

    24 January, Wednesday

    Time Temperature Precipitation Wind Pressure Humidity
    00:00 -20°C° 0 mm 2 mps 479 mmHg 43%
    01:00 -20°C° 0 mm 2 mps 478 mmHg 42%
    02:00 -20°C° 0 mm 2 mps 478 mmHg 41%
    03:00 -20°C° 0 mm 2 mps 478 mmHg 40%
    04:00 -21°C° 0 mm 2 mps 478 mmHg 38%
    05:00 -21°C° 0 mm 2 mps 478 mmHg 37%
    06:00 -23°C° 0 mm 3 mps 478 mmHg 37%
    07:00 -23°C° 0 mm 3 mps 479 mmHg 36%
    08:00 -23°C° 0 mm 3 mps 479 mmHg 35%
    09:00 -18°C° 0 mm 2 mps 480 mmHg 39%
    10:00 -16°C° 0 mm 2 mps 481 mmHg 43%
    11:00 -13°C° 0 mm 2 mps 482 mmHg 47%
    12:00 -10°C° 0 mm 1 mps 482 mmHg 46%
    13:00 -9°C° 0 mm 1 mps 482 mmHg 45%
    14:00 -8°C° 0 mm 1 mps 482 mmHg 44%
    15:00 -10°C° 0 mm 1 mps 481 mmHg 45%
    16:00 -11°C° 0 mm 1 mps 480 mmHg 46%
    17:00 -12°C° 0 mm 1 mps 479 mmHg 47%
    18:00 -13°C° 0 mm 1 mps 480 mmHg 45%
    19:00 -15°C° 0 mm 2 mps 480 mmHg 43%
    20:00 -16°C° 0 mm 2 mps 481 mmHg 42%
    21:00 -16°C° 0 mm 2 mps 481 mmHg 42%
    22:00 -16°C° 0 mm 2 mps 481 mmHg 42%
    23:00 -16°C° 0 mm 2 mps 481 mmHg 42%

    25 January, Thursday

    Time Temperature Precipitation Wind Pressure Humidity
    00:00 -17°C° 0 mm 2 mps 481 mmHg 43%
    01:00 -17°C° 0 mm 2 mps 480 mmHg 44%
    02:00 -17°C° 0 mm 2 mps 480 mmHg 45%
    03:00 -17°C° 0 mm 2 mps 480 mmHg 47%
    04:00 -18°C° 0 mm 2 mps 480 mmHg 48%
    05:00 -18°C° 0 mm 2 mps 480 mmHg 50%
    06:00 -18°C° 0 mm 2 mps 480 mmHg 51%
    07:00 -18°C° 0 mm 2 mps 480 mmHg 52%
    08:00 -17°C° 0 mm 2 mps 480 mmHg 53%
    09:00 -16°C° 0 mm 2 mps 481 mmHg 54%
    10:00 -12°C° 0 mm 1 mps 481 mmHg 55%
    11:00 -10°C° 0 mm 1 mps 482 mmHg 56%
    12:00 -10°C° 0 mm 1 mps 482 mmHg 59%
    13:00 -10°C° 0 mm 2 mps 481 mmHg 62%
    14:00 -10°C° 0 mm 2 mps 481 mmHg 64%
    15:00 -12°C° 0.1 mm 2 mps 481 mmHg 68%
    16:00 -13°C° 0.1 mm 2 mps 481 mmHg 73%
    17:00 -14°C° 0.1 mm 2 mps 480 mmHg 77%
    18:00 -12°C° 0.1 mm 1 mps 481 mmHg 78%
    19:00 -13°C° 0.1 mm 1 mps 481 mmHg 79%
    20:00 -14°C° 0.1 mm 1 mps 481 mmHg 80%
    21:00 -14°C° 0.1 mm 1 mps 481 mmHg 81%
    22:00 -15°C° 0.1 mm 1 mps 481 mmHg 82%
    23:00 -15°C° 0.1 mm 1 mps 481 mmHg 83%
    Show more